Weather History for Eagle River, WI

Change the Weather History Date:

Thursday, January 17, 2013

  Actual Average Record
Temperature  
Mean Temperature 3 °F -  
Max Temperature 10 °F 16 °F 37 °F (1999)
Min Temperature -4 °F -1 °F -20 °F (1971)
Degree Days  
Heating Degree Days 62    
Moisture  
Dew Point -5 °F    
Average Humidity 66    
Maximum Humidity 85    
Minimum Humidity 52    
Precipitation  
Precipitation 0.00 in - - ()
Sea Level Pressure  
Sea Level Pressure 30.18 in    
Wind  
Wind Speed 8 mph (WNW)    
Max Wind Speed 15 mph    
Max Gust Speed 20 mph    
Visibility 10 miles    
Events Snow    
Averages and records for this station are not official NWS values.
T = Trace of Precipitation, MM = Missing Value Source: NWS Daily Summary

Daily Weather History Graph

Daily Weather History Graph

Search for Another Location

Airport:

Trip Planner

Search our weather history database for the weather conditions in past years. The results will help you decide how hot, cold, wet, or windy it might be!

Date:

Astronomy

Jan. 17, 2013 Rise Set
Actual Time 7:33 AM CST 4:41 PM CST
Civil Twilight 7:00 AM CST 5:14 PM CST
Nautical Twilight 6:23 AM CST 5:51 PM CST
Astronomical Twilight 5:47 AM CST 6:27 PM CST
Moon 10:16 AM CST (1/17) 11:58 PM CST (1/17)
Length of Visible Light 10h 14m
Length of Day
9h 08m
Waxing Crescent, 38% of the Moon is Illuminated
Jan 17
Waxing Crescent
Jan 18
First Quarter
Jan 26
Full
Feb 3
Last Quarter
Feb 10
New

Hourly Weather History & Observations

Time (CST) Temp. Windchill Dew Point Humidity Pressure Visibility Wind Dir Wind Speed Gust Speed Precip Events Conditions
12:15 AM 8.6 °F -2.6 °F -0.4 °F 67% 30.03 in 10.0 mi NNW 6.9 mph - N/A   Clear
12:55 AM 10.4 °F -1.5 °F -0.4 °F 62% 30.06 in 10.0 mi NW 8.1 mph - N/A   Clear
1:15 AM 10.4 °F -3.3 °F -0.4 °F 62% 30.07 in 10.0 mi NW 10.4 mph - N/A   Mostly Cloudy
1:35 AM 10.4 °F -4.1 °F -0.4 °F 62% 30.08 in 10.0 mi NNW 11.5 mph - N/A   Overcast
1:55 AM 10.4 °F -0.4 °F -0.4 °F 62% 30.09 in 10.0 mi NW 6.9 mph - N/A   Mostly Cloudy
2:15 AM 8.6 °F -4.7 °F -0.4 °F 67% 30.09 in 10.0 mi NW 9.2 mph - N/A   Overcast
2:35 AM 8.6 °F -3.7 °F -0.4 °F 67% 30.10 in 10.0 mi WNW 8.1 mph - N/A   Mostly Cloudy
2:55 AM 8.6 °F -3.7 °F -2.2 °F 62% 30.10 in 10.0 mi NW 8.1 mph - N/A   Mostly Cloudy
3:15 AM 6.8 °F -0.1 °F -2.2 °F 67% 30.10 in 10.0 mi WNW 3.5 mph - N/A   Mostly Cloudy
3:35 AM 5.0 °F -8.1 °F -4.0 °F 66% 30.10 in 10.0 mi WNW 8.1 mph - N/A   Scattered Clouds
3:55 AM 5.0 °F -4.1 °F -4.0 °F 66% 30.10 in 10.0 mi NW 4.6 mph - N/A   Clear
4:15 AM 5.0 °F - -4.0 °F 66% 30.10 in 10.0 mi Calm Calm - N/A   Scattered Clouds
4:35 AM 5.0 °F -2.1 °F -2.2 °F 72% 30.11 in 7.0 mi WNW 3.5 mph - N/A   Overcast
4:55 AM 5.0 °F -2.1 °F -0.4 °F 78% 30.10 in 3.0 mi WNW 3.5 mph - N/A Snow Light Snow
5:15 AM 5.0 °F -10.0 °F -0.4 °F 78% 30.10 in 5.0 mi WNW 10.4 mph - N/A Snow Light Snow
5:35 AM 3.2 °F -10.3 °F -2.2 °F 78% 30.11 in 10.0 mi WNW 8.1 mph - N/A   Scattered Clouds
5:55 AM 3.2 °F -7.8 °F -4.0 °F 72% 30.11 in 10.0 mi WNW 5.8 mph - N/A   Clear
6:15 AM 3.2 °F -12.2 °F -4.0 °F 72% 30.13 in 10.0 mi WNW 10.4 mph - N/A   Clear
6:35 AM 1.4 °F -9.9 °F -5.8 °F 72% 30.13 in 10.0 mi WNW 5.8 mph - N/A   Clear
6:55 AM 1.4 °F -12.5 °F -5.8 °F 72% 30.14 in 10.0 mi WNW 8.1 mph - N/A   Clear
7:15 AM 1.4 °F -14.5 °F -5.8 °F 72% 30.16 in 10.0 mi WNW 10.4 mph - N/A   Clear
7:35 AM -0.4 °F -16.7 °F -5.8 °F 78% 30.17 in 10.0 mi WNW 10.4 mph 16.1 mph N/A   Clear
7:55 AM -0.4 °F -14.7 °F -7.6 °F 72% 30.18 in 10.0 mi WNW 8.1 mph - N/A   Clear
8:15 AM 1.4 °F -14.5 °F -7.6 °F 66% 30.19 in 10.0 mi WNW 10.4 mph - N/A   Clear
8:35 AM 1.4 °F -14.5 °F -5.8 °F 72% 30.19 in 10.0 mi WNW 10.4 mph - N/A   Clear
8:55 AM 1.4 °F -13.5 °F -5.8 °F 72% 30.19 in 10.0 mi WNW 9.2 mph - N/A   Mostly Cloudy
9:15 AM 1.4 °F -14.5 °F -5.8 °F 72% 30.20 in 10.0 mi West 10.4 mph - N/A   Overcast
9:35 AM 3.2 °F -14.6 °F -5.8 °F 66% 30.21 in 10.0 mi WNW 13.8 mph 17.3 mph N/A   Overcast
9:55 AM 3.2 °F -13.9 °F -5.8 °F 66% 30.21 in 10.0 mi NW 12.7 mph 17.3 mph N/A   Overcast
10:15 AM 3.2 °F -12.2 °F -7.6 °F 61% 30.21 in 10.0 mi WNW 10.4 mph 17.3 mph N/A   Overcast
10:35 AM 3.2 °F -11.3 °F -5.8 °F 66% 30.21 in 10.0 mi WNW 9.2 mph - N/A   Overcast
10:55 AM 5.0 °F -8.1 °F -5.8 °F 61% 30.20 in 10.0 mi WNW 8.1 mph - N/A   Overcast
11:15 AM 5.0 °F -10.0 °F -5.8 °F 61% 30.20 in 10.0 mi West 10.4 mph - N/A   Overcast
11:35 AM 5.0 °F -13.0 °F -5.8 °F 61% 30.19 in 10.0 mi WNW 15.0 mph - N/A   Overcast
11:55 AM 6.8 °F -7.8 °F -5.8 °F 56% 30.20 in 10.0 mi West 10.4 mph 17.3 mph N/A   Mostly Cloudy
12:15 PM 8.6 °F -8.3 °F -4.0 °F 57% 30.20 in 10.0 mi WNW 15.0 mph 18.4 mph N/A   Mostly Cloudy
12:35 PM 8.6 °F -7.0 °F -4.0 °F 57% 30.19 in 10.0 mi West 12.7 mph 18.4 mph N/A   Mostly Cloudy
12:55 PM 8.6 °F -5.5 °F -4.0 °F 57% 30.19 in 10.0 mi WNW 10.4 mph - N/A   Overcast
1:15 PM 8.6 °F -8.3 °F -4.0 °F 57% 30.19 in 10.0 mi WNW 15.0 mph 18.4 mph N/A   Mostly Cloudy
1:35 PM 8.6 °F -6.3 °F -5.8 °F 52% 30.18 in 10.0 mi WNW 11.5 mph - N/A   Scattered Clouds
1:55 PM 8.6 °F -7.7 °F -4.0 °F 57% 30.19 in 10.0 mi WNW 13.8 mph - N/A   Mostly Cloudy
2:15 PM 8.6 °F -7.0 °F -5.8 °F 52% 30.19 in 10.0 mi WNW 12.7 mph 19.6 mph N/A   Mostly Cloudy
2:35 PM 8.6 °F -7.0 °F -5.8 °F 52% 30.18 in 10.0 mi West 12.7 mph 19.6 mph N/A   Mostly Cloudy
2:55 PM 8.6 °F -7.7 °F -5.8 °F 52% 30.19 in 10.0 mi WNW 13.8 mph 19.6 mph N/A   Mostly Cloudy
3:15 PM 8.6 °F -1.3 °F -5.8 °F 52% 30.19 in 10.0 mi WNW 5.8 mph 18.4 mph N/A   Scattered Clouds
3:35 PM 8.6 °F -6.3 °F -5.8 °F 52% 30.20 in 10.0 mi NW 11.5 mph - N/A   Scattered Clouds
3:55 PM 8.6 °F -5.5 °F -5.8 °F 52% 30.20 in 10.0 mi NW 10.4 mph - N/A   Clear
4:35 PM 6.8 °F -7.8 °F -7.6 °F 52% 30.22 in 10.0 mi WNW 10.4 mph - N/A   Clear
4:55 PM 5.0 °F -4.1 °F -5.8 °F 61% 30.22 in 10.0 mi WNW 4.6 mph - N/A   Clear
5:15 PM 5.0 °F -2.1 °F -7.6 °F 56% 30.22 in 10.0 mi West 3.5 mph - N/A   Clear
5:35 PM 3.2 °F -4.2 °F -7.6 °F 61% 30.22 in 10.0 mi WNW 3.5 mph - N/A   Clear
5:55 PM 3.2 °F -6.2 °F -7.6 °F 61% 30.22 in 10.0 mi WNW 4.6 mph - N/A   Clear
6:15 PM 3.2 °F -6.2 °F -5.8 °F 66% 30.22 in 10.0 mi WNW 4.6 mph - N/A   Scattered Clouds
6:35 PM 1.4 °F -8.3 °F -7.6 °F 66% 30.23 in 10.0 mi WNW 4.6 mph - N/A   Clear
6:55 PM 1.4 °F -8.3 °F -5.8 °F 72% 30.23 in 10.0 mi West 4.6 mph - N/A   Clear
7:15 PM 1.4 °F -8.3 °F -7.6 °F 66% 30.24 in 10.0 mi West 4.6 mph - N/A   Clear
7:35 PM 1.4 °F -9.9 °F -5.8 °F 72% 30.24 in 10.0 mi West 5.8 mph - N/A   Clear
7:55 PM 1.4 °F -8.3 °F -5.8 °F 72% 30.24 in 10.0 mi West 4.6 mph - N/A   Clear
8:15 PM 1.4 °F -8.3 °F -5.8 °F 72% 30.23 in 10.0 mi West 4.6 mph - N/A   Clear
8:35 PM -0.4 °F -10.4 °F -7.6 °F 72% 30.23 in 10.0 mi West 4.6 mph - N/A   Clear
8:55 PM -2.2 °F -14.2 °F -7.6 °F 78% 30.24 in 10.0 mi WSW 5.8 mph - N/A   Clear
9:15 PM -2.2 °F -12.5 °F -7.6 °F 78% 30.23 in 10.0 mi WSW 4.6 mph - N/A   Clear
9:35 PM -2.2 °F -14.2 °F -7.6 °F 78% 30.23 in 10.0 mi WSW 5.8 mph - N/A   Clear
9:55 PM -2.2 °F -12.5 °F -7.6 °F 78% 30.22 in 10.0 mi WSW 4.6 mph - N/A   Clear
10:55 PM -2.2 °F -14.2 °F -7.6 °F 78% 30.22 in 10.0 mi West 5.8 mph - N/A   Clear
11:15 PM -4.0 °F -12.4 °F -7.6 °F 85% 30.22 in 10.0 mi WSW 3.5 mph - N/A   Clear
11:35 PM -4.0 °F -12.4 °F -7.6 °F 85% 30.23 in 10.0 mi WSW 3.5 mph - N/A   Clear
11:55 PM -2.2 °F - -5.8 °F 85% 30.22 in 10.0 mi Calm Calm - N/A   Clear